Powrót do katalogu

THORAD AGENA D DEB

AktywnyPO
NORAD 4935·DEBRIS·🇺🇸 United States

Wystrzelony Apr 8, 1970 z Vandenberg Space Force Base

Loading…

Następne Przeloty

TLE

Source: Space-Track
1 04935U 70025GB  26228.62994880  .00000438  00000-0  40733-3 0  9996
2 04935  99.8622 359.8057 0063470 209.0454 163.7014 13.87371326825424

Śledź THORAD AGENA D DEB w czasie rzeczywistym z AllMySat

Download on the App Store